Location: Naloco
(16.5478°S, 37.1017°E)
Time: 02:17:49
(UTC+00:00)

GPS 2-12 Rocket1 - Pass Details

Date: 13 August 2020
Orbit: 586 x 652 km, 20.0° (Epoch: 23 September)

Event Time Altitude Azimuth Distance (km) Brightness Sun altitude
Rises 17:16:17 0° 258° (WSW) 2,806 7.5 -27.6°
Reaches altitude 10° 17:18:37 10° 255° (WSW) 1,903 6.4 -28.1°
Enters shadow 17:21:22 36° 241° (WSW) 934 4.3 -28.8°
